Flag for Canada Weather past 2 weeks in Whitby, Ontario, Canada

Now
73 °F

Partly sunny.


Feels Like: 76 °F
Forecast: 53 / 68 °F
Wind: 13 mph from West

Location: Toronto Buttonville

Current Time: Sep 21, 2014 at 3:09:15 PM

Latest Report: Sep 21, 2014 at 2:00 PM


Visibility: 15 mi

Pressure: 29.54 "Hg

Humidity: 61%

Dew point: 59 °F

Location of WhitbyLocation

Historic Weather in Whitby — Graph

°F

Whitby temperature yesterday

Maximum temperature yesterday: 75 °F (at 3:00 PM)
Minimum temperature yesterday: 45 °F (at 12:00 AM)
Average temperature yesterday: 61 °F

Past Weeks' High & Low Weather Summary

 TemperatureHumidityPressure
High75 °F (Sep 20, 3:00 PM)100% (Sep 8, 2:00 AM)30.37 "Hg (Sep 8, 2:00 AM)
Low37 °F (Sep 19, 6:00 AM)40% (Sep 6, 5:00 PM)29.52 "Hg (Sep 11, 4:00 AM)
Average57 °F77%30.09 "Hg
* Reported Sep 6 1:00 PM — Sep 21 1:00 PM, Whitby, Weather by CustomWeather, © 2014

Note: Actual official high and low records may vary slightly from our data, if they occured in-between our weather recording intervals... More about our weather records

Advertising

Whitby weather history for previous 24 hours

 ConditionsComfort  
Time TempWeatherWind HumidityBarometerVisibility
1:00 PM
Sep 21
75 °FPartly sunny.14 mph61%29.53 "Hg15 mi
12:00 PM73 °FPartly sunny.14 mph65%29.53 "Hg15 mi
11:00 AM70 °FPartly sunny.13 mph83%29.52 "Hg15 mi
9:55 AMN/ASprinkles.9 mphN/AN/A3 mi
9:00 AM64 °FSprinkles. Fog.7 mph94%29.56 "Hg3 mi
8:53 AMN/ASprinkles.5 mphN/AN/A2 mi
8:04 AMN/ASprinkles.5 mphN/AN/A2 mi
7:00 AM64 °FPassing clouds.7 mph88%29.63 "Hg12 mi
6:00 AM66 °FMostly cloudy.8 mph83%29.66 "Hg15 mi
5:00 AM66 °FOvercast.3 mph83%29.67 "Hg15 mi
4:00 AM66 °FPassing clouds.5 mph83%29.68 "Hg15 mi
3:00 AM68 °FPassing clouds.7 mph78%29.70 "Hg15 mi
2:00 AM68 °FPassing clouds.7 mph78%29.71 "Hg15 mi
1:00 AM68 °FSprinkles. Partly cloudy.10 mph83%29.73 "Hg14 mi
12:00 AM70 °FSprinkles. Passing clouds.7 mph78%29.74 "Hg14 mi
11:00 PM
Sep 20
72 °FSprinkles. Passing clouds.13 mph73%29.76 "Hg12 mi
10:00 PM70 °FPassing clouds.8 mph73%29.78 "Hg15 mi
9:00 PM70 °FPassing clouds.7 mph73%29.79 "Hg15 mi
8:00 PM72 °FScattered clouds.8 mph65%29.80 "Hg15 mi
7:00 PM73 °FSprinkles. Partly sunny.9 mph61%29.80 "Hg12 mi
6:00 PM73 °FPartly sunny.21 mph57%29.80 "Hg15 mi
5:00 PM75 °FBroken clouds.14 mph54%29.83 "Hg15 mi
4:00 PM75 °FPartly sunny.10 mph57%29.84 "Hg15 mi
3:00 PM75 °FScattered clouds.14 mph61%29.85 "Hg15 mi
Weather by CustomWeather, © 2014

See weather overviewHow to use our weather pages